IST,Max TemperatureF,Mean TemperatureF,Min TemperatureF,Max Dew PointF,MeanDew PointF,Min DewpointF,Max Humidity, Mean Humidity, Min Humidity, Max Sea Level PressureIn, Mean Sea Level PressureIn, Min Sea Level PressureIn, Max VisibilityMiles, Mean VisibilityMiles, Min VisibilityMiles, Max Wind SpeedMPH, Mean Wind SpeedMPH, Max Gust SpeedMPH,PrecipitationIn, CloudCover, Events, WindDirDegrees
2012-11-1,96,80,63,68,62,57,78,61,32,29.96,29.91,29.86,6,5,4,13,3,,0.00,1,,96
2012-11-2,87,78,70,72,64,61,70,64,45,29.94,29.89,29.86,6,6,5,10,3,,0.00,6,,47
2012-11-3,87,78,70,64,57,50,69,49,25,29.95,29.92,29.86,6,6,5,14,5,,0.00,,,11
2012-11-4,85,76,66,64,54,46,69,47,27,29.99,29.96,29.92,6,6,6,10,3,,0.00,,,326
2012-11-5,87,76,64,64,55,46,64,48,22,29.99,29.95,29.89,6,6,6,8,3,,0.00,,,8
2012-11-6,88,78,67,64,58,52,78,54,25,30.01,29.96,29.92,6,6,6,13,5,,0.00,,,351
2012-11-7,82,72,63,66,62,55,78,68,40,30.05,30.00,29.95,6,6,6,12,4,,0.00,3,,15
2012-11-8,81,74,66,64,62,59,83,67,40,29.98,29.91,29.86,6,6,5,9,3,,0.00,2,,240
2012-11-9,77,70,64,64,60,55,88,74,44,29.89,29.85,29.80,6,6,4,18,8,30,0.16,5,Rain-Thunderstorm,177
2012-11-10,74,66,59,63,58,52,88,77,56,29.95,29.90,29.86,6,5,1,22,14,33,0.04,5,Rain,170
2012-11-11,70,65,60,59,57,52,88,79,60,29.99,29.94,29.89,6,6,2,20,13,31,0.24,6,Rain-Thunderstorm,179
2012-11-12,74,67,60,59,57,52,88,80,47,30.01,29.98,29.95,6,6,2,18,9,30,0.20,5,Rain-Thunderstorm,160
2012-11-13,73,66,59,59,56,54,94,72,45,30.04,30.00,29.98,6,6,6,8,3,,0.00,3,,152
2012-11-14,75,67,59,61,57,55,88,71,45,30.06,30.03,30.01,6,6,6,8,3,,0.00,3,,207
2012-11-15,79,68,58,59,54,48,88,62,30,30.10,30.05,30.01,6,6,6,8,3,,0.00,1,,19
2012-11-16,81,71,61,46,41,37,59,30,13,30.04,29.99,29.91,6,6,6,22,12,34,0.00,8,,96
2012-11-17,83,76,68,63,47,39,69,38,16,29.92,29.88,29.83,6,6,6,21,13,32,0.01,6,Rain,105
2012-11-18,79,70,60,63,57,50,78,64,44,29.95,29.91,29.86,6,6,5,10,4,,0.00,3,,118
2012-11-19,77,70,62,63,59,57,88,72,49,30.06,30.00,29.95,6,6,6,13,4,,0.00,2,,1
2012-11-20,75,67,59,57,55,52,82,66,36,30.06,30.03,30.01,6,6,6,8,3,,0.00,2,,22
2012-11-21,78,66,55,57,54,48,82,65,24,30.04,29.97,29.92,6,5,4,7,3,,0.00,,,75
2012-11-22,75,66,57,63,57,50,83,72,48,29.92,29.88,29.80,6,6,2,17,4,43,0.28,4,Rain-Thunderstorm,185
2012-11-23,69,64,59,62,58,55,94,83,65,29.98,29.90,29.86,6,6,2,16,7,,0.28,6,Rain-Thunderstorm,178
2012-11-24,72,66,60,61,57,55,94,77,56,30.01,29.99,29.95,6,6,4,9,4,,0.20,4,Rain,149
2012-11-25,70,63,56,59,56,50,94,75,51,30.02,29.99,29.95,6,6,4,10,5,,0.00,6,Rain,157
2012-11-26,73,64,55,57,54,52,88,74,45,30.07,30.04,30.01,6,6,2,9,3,,0.16,3,Rain,122
2012-11-27,71,64,57,61,55,52,88,75,45,30.11,30.06,30.04,6,6,5,14,4,,0.00,7,Rain,42
2012-11-28,79,66,54,54,49,44,88,59,21,30.12,30.08,30.04,6,6,6,38,4,,0.00,,,33
2012-11-29,82,70,59,48,45,37,67,48,21,30.10,30.05,30.01,6,6,6,13,3,,0.00,,,2
2012-11-30,78,66,53,54,49,45,77,58,26,30.09,30.06,30.01,6,6,6,6,3,,0.00,,,26